Hourly Data Report for July 01, 2021

VINELAND STATION RCS
ONTARIO
Current Station Operator: ECCC - MSC

43°11'00.000" N
79°24'00.000" W
79.20 m
6139148
71171
XVN

Download Data

Hourly Data (July 2021)
Hourly Data Report for July 1, 2021
TIME
LST
Temp Definition
°C
Dew Point Definition
°C
Rel Hum Definition
%
Precip. Amount Definition
mm

Wind Dir Definition
10's deg

Wind Spd Definition
km/h
Visibility Definition
km
Stn Press Definition
kPa
Hmdx Definition


Wind Chill Definition


Weather Definition


00:00 19.4 17.3 88 0.0 23 5   100.36     LegendNANA
01:00 19.4 17.1 87 0.0 27 5   100.31     LegendNANA
02:00 18.8 17.1 90 0.0 23 6   100.27     LegendNANA
03:00 18.8 17.3 91 0.0 36 2   100.26     LegendNANA
04:00 19.2 17.5 90 0.0 28 8   100.24     LegendNANA
05:00 19.1 17.4 90 0.0 20 3   100.24     LegendNANA
06:00 19.0 17.6 92 0.0 34 4   100.23     LegendNANA
07:00 19.9 17.7 87 0.0 32 6   100.26     LegendNANA
08:00 20.8 16.9 79 0.0 35 5   100.27 26   LegendNANA
09:00 20.2 17.0 82 0.0 34 10   100.25 25   LegendNANA
10:00 20.5 17.5 83 0.0 34 9   100.21 26   LegendNANA
11:00 20.7 17.4 81 0.0 33 7   100.24 26   LegendNANA
12:00 21.6 16.7 74 0.0 2 7   100.21 27   LegendNANA
13:00 22.9 16.3 66 0.0 6 7   100.14 28   LegendNANA
14:00 23.8 16.3 63 0.0 9 6   100.10 29   LegendNANA
15:00 23.2 15.9 64 0.0 9 4   100.06 28   LegendNANA
16:00 22.4 16.7 70 0.0 3 6   100.01 27   LegendNANA
17:00 19.3 16.9 86 LegendMM 24 13   100.06     LegendNANA
18:00 20.1 17.5 85 LegendMM 19 9   100.04 26   LegendNANA
19:00 18.8 16.2 85 LegendMM 33 19   100.14     LegendNANA
20:00 18.4 15.4 83 LegendMM 1 13   100.08     LegendNANA
21:00 19.0 14.8 77 0.0 35 21   100.14     LegendNANA
22:00 18.5 14.5 77 0.0 34 17   100.15     LegendNANA
23:00 18.1 14.6 80 0.0 34 16   100.13     LegendNANA

Notes on Data Quality.

Legend

  • E = Estimated
  • M = Missing
  • NA = Not Available*
  • [empty] = Indicates an unobserved value
Date modified: